Maple Lake, MN

12:49 PM CDT on August 25, 2016 (GMT -0500)
Maple Lake Municipal

Weather History for KMGG - June, 2014

Change the Weather History Date:

Tuesday, June 10, 2014

  Actual Average (KSTC) Record (KSTC)
Temperature  
Mean Temperature 64 °F 64 °F  
Max Temperature 77 °F 76 °F 96 °F (1933)
Min Temperature 51 °F 52 °F 35 °F (1972)
Degree Days  
Heating Degree Days 1 3  
Month to date heating degree days 42  
Since 1 June heating degree days 42  
Since 1 July heating degree days 8496  
Cooling Degree Days 0 2  
Month to date cooling degree days 19  
Year to date cooling degree days 44  
Since 1 June cooling degree days 19  
Growing Degree Days 14 (Base 50)    
Moisture  
Dew Point 55 °F    
Average Humidity 71    
Maximum Humidity 100    
Minimum Humidity 44    
Precipitation  
Precipitation 0.00 in 0.14 in 1.81 in (1968)
Month to date precipitation 1.29  
Year to date precipitation 9.60  
Snow  
Snow 0.00 in 0.00 in 0.00 in ()
Month to date snowfall 0.0  
Since 1 June snowfall 0.0  
Since 1 July snowfall 45.7  
Snow Depth -    
Sea Level Pressure  
Sea Level Pressure 29.94 in    
Wind  
Wind Speed 1 mph (SE)    
Max Wind Speed 7 mph    
Max Gust Speed -    
Visibility 9 miles    
Events Fog    
T = Trace of Precipitation, MM = Missing Value Source: NWS Daily Summary

Daily Weather History Graph

Daily Weather History Graph

Search for Another Location

Airport or City:

Trip Planner

Search our weather history database for the weather conditions in past years. The results will help you decide how hot, cold, wet, or windy it might be!

Date:

Astronomy

Jun. 10, 2014 Rise Set
Actual Time 5:28 AM CDT 9:02 PM CDT
Civil Twilight 4:50 AM CDT 9:40 PM CDT
Nautical Twilight 4:01 AM CDT 10:30 PM CDT
Astronomical Twilight 2:56 AM CDT 11:35 PM CDT
Moon 6:22 PM CDT (6/10) 3:42 AM CDT (6/10)
Length of Visible Light 16h 49m
Length of Day
15h 34m
Waxing Gibbous, 92% of the Moon is Illuminated
Jun 10
Waxing Gibbous
Jun 12
Full
Jun 19
Last Quarter
Jun 27
New
Jul 5
First Quarter

Hourly Weather History & Observations

Time (CDT) Temp. Dew Point Humidity Pressure Visibility Wind Dir Wind Speed Gust Speed Precip Events Conditions
12:18 AM 55.4 °F 53.8 °F 94% 29.99 in 10.0 mi Calm Calm - N/A   Clear
12:39 AM 54.9 °F 53.8 °F 96% 29.99 in 10.0 mi Calm Calm - N/A   Clear
12:59 AM 54.1 °F 53.2 °F 97% 29.99 in 10.0 mi Calm Calm - N/A   Clear
1:18 AM 54.9 °F 54.0 °F 97% 29.99 in 10.0 mi Calm Calm - N/A   Clear
1:39 AM 54.0 °F 53.2 °F 97% 29.98 in 10.0 mi Calm Calm - N/A   Clear
1:59 AM 54.0 °F 53.4 °F 98% 29.98 in 4.0 mi Calm Calm - N/A   Clear
2:18 AM 52.9 °F 52.5 °F 99% 29.98 in 4.0 mi Calm Calm - N/A   Clear
2:39 AM 52.3 °F 52.0 °F 99% 29.98 in 5.0 mi Calm Calm - N/A   Clear
2:59 AM 52.3 °F 52.0 °F 99% 29.97 in 7.0 mi Calm Calm - N/A   Clear
3:19 AM 52.0 °F 51.6 °F 99% 29.97 in 7.0 mi Calm Calm - N/A   Clear
3:36 AM 52.3 °F 52.2 °F 99% 29.97 in 7.0 mi Calm Calm - N/A   Clear
3:59 AM 52.0 °F 51.6 °F 99% 29.97 in 0.5 mi Calm Calm - N/A Fog Fog
4:19 AM 52.9 °F 52.7 °F 99% 29.97 in 3.0 mi Calm Calm - N/A   Clear
4:38 AM 51.6 °F 51.3 °F 99% 29.97 in 0.8 mi Calm Calm - N/A   Mist
4:59 AM 51.8 °F 51.6 °F 99% 29.98 in 4.0 mi Calm Calm - N/A   Clear
5:19 AM 51.8 °F 51.6 °F 99% 29.98 in 4.0 mi Calm Calm - N/A   Clear
5:38 AM 52.0 °F 51.8 °F 99% 29.98 in 2.5 mi Calm Calm - N/A   Clear
5:59 AM 52.2 °F 52.0 °F 99% 29.98 in 1.0 mi Calm Calm - N/A   Mist
6:19 AM 52.2 °F 52.0 °F 99% 29.99 in 4.0 mi Calm Calm - N/A   Clear
6:38 AM 54.0 °F 54.0 °F 100% 29.98 in 7.0 mi Calm Calm - N/A   Clear
6:59 AM 56.3 °F 56.3 °F 100% 29.98 in 10.0 mi Calm Calm - N/A   Clear
7:19 AM 56.5 °F 56.3 °F 99% 29.98 in 10.0 mi Calm Calm - N/A   Clear
7:39 AM 58.3 °F 58.1 °F 99% 29.98 in 10.0 mi East 3.5 mph - N/A   Clear
7:59 AM 61.7 °F 57.4 °F 86% 29.98 in 10.0 mi Calm Calm - N/A   Clear
8:19 AM 63.3 °F 58.1 °F 83% 29.98 in 10.0 mi Calm Calm - N/A   Clear
8:58 AM 66.0 °F 57.0 °F 73% 29.98 in 10.0 mi Calm Calm - N/A   Clear
9:19 AM 68.0 °F 58.1 °F 71% 29.98 in 10.0 mi Calm Calm - N/A   Clear
9:39 AM 69.4 °F 57.6 °F 66% 29.98 in 10.0 mi East 3.5 mph - N/A   Clear
10:19 AM 71.6 °F 57.6 °F 61% 29.97 in 10.0 mi Calm Calm - N/A   Scattered Clouds
10:39 AM 72.1 °F 57.7 °F 60% 29.97 in 10.0 mi SSE 4.6 mph - N/A   Overcast
10:58 AM 72.1 °F 56.8 °F 58% 29.97 in 10.0 mi SE 3.5 mph - N/A   Overcast
11:19 AM 72.7 °F 54.5 °F 53% 29.97 in 10.0 mi ESE 6.9 mph - N/A   Overcast
11:39 AM 74.3 °F 54.9 °F 51% 29.97 in 10.0 mi ESE 4.6 mph - N/A   Overcast
12:19 PM 73.9 °F 52.9 °F 48% 29.95 in 10.0 mi SE 5.8 mph - N/A   Overcast
12:38 PM 75.0 °F 55.2 °F 50% 29.95 in 10.0 mi SSE 5.8 mph - N/A   Overcast
12:59 PM 75.4 °F 55.0 °F 49% 29.95 in 10.0 mi SE 6.9 mph - N/A   Overcast
1:19 PM 76.8 °F 55.9 °F 48% 29.94 in 10.0 mi SE 5.8 mph - N/A   Mostly Cloudy
1:39 PM 76.3 °F 55.6 °F 49% 29.94 in 10.0 mi SE 5.8 mph - N/A   Scattered Clouds
2:19 PM 77.0 °F 54.9 °F 46% 29.93 in 10.0 mi SE 6.9 mph - N/A   Clear
2:39 PM 76.8 °F 54.7 °F 46% 29.93 in 10.0 mi SE 5.8 mph - N/A   Clear
2:58 PM 76.5 °F 55.2 °F 48% 29.93 in 10.0 mi SE 6.9 mph - N/A   Scattered Clouds
3:19 PM 77.0 °F 55.9 °F 48% 29.93 in 10.0 mi SE 3.5 mph - N/A   Clear
3:39 PM 75.0 °F 54.9 °F 49% 29.92 in 10.0 mi SSE 3.5 mph - N/A   Clear
4:18 PM 77.4 °F 55.0 °F 46% 29.92 in 10.0 mi SE 5.8 mph - N/A   Scattered Clouds
4:39 PM 77.9 °F 56.3 °F 47% 29.92 in 10.0 mi Calm Calm - N/A   Scattered Clouds
4:58 PM 76.5 °F 55.0 °F 47% 29.92 in 7.0 mi SE 4.6 mph - N/A   Scattered Clouds
5:19 PM 76.1 °F 54.3 °F 47% 29.91 in 10.0 mi SSE 3.5 mph - N/A   Mostly Cloudy
5:39 PM 75.6 °F 52.7 °F 45% 29.91 in 10.0 mi Calm Calm - N/A   Mostly Cloudy
5:59 PM 77.2 °F 53.4 °F 44% 29.90 in 10.0 mi Calm Calm - N/A   Scattered Clouds
6:18 PM 77.4 °F 54.9 °F 46% 29.90 in 10.0 mi SE 3.5 mph - N/A   Scattered Clouds
6:39 PM 76.6 °F 54.0 °F 45% 29.90 in 10.0 mi South 3.5 mph - N/A   Scattered Clouds
6:58 PM 76.3 °F 54.1 °F 46% 29.90 in 10.0 mi Calm Calm - N/A   Clear
7:19 PM 76.1 °F 53.8 °F 46% 29.89 in 10.0 mi SE 3.5 mph - N/A   Clear
7:38 PM 75.4 °F 54.3 °F 48% 29.89 in 10.0 mi Calm Calm - N/A   Clear
7:59 PM 74.7 °F 54.5 °F 49% 29.89 in 10.0 mi Calm Calm - N/A   Clear
8:18 PM 74.1 °F 55.0 °F 51% 29.89 in 10.0 mi Calm Calm - N/A   Clear
8:39 PM 72.7 °F 55.6 °F 55% 29.88 in 10.0 mi Calm Calm - N/A   Clear
8:59 PM 71.1 °F 55.8 °F 58% 29.88 in 10.0 mi Calm Calm - N/A   Clear
9:19 PM 67.5 °F 56.5 °F 68% 29.88 in 10.0 mi Calm Calm - N/A   Clear
9:38 PM 66.0 °F 55.9 °F 70% 29.88 in 10.0 mi Calm Calm - N/A   Clear
10:19 PM 67.3 °F 55.8 °F 66% 29.88 in 10.0 mi East 4.6 mph - N/A   Clear
10:39 PM 67.1 °F 55.4 °F 66% 29.88 in 10.0 mi East 3.5 mph - N/A   Clear
10:58 PM 67.3 °F 54.9 °F 64% 29.88 in 10.0 mi Calm Calm - N/A   Clear
11:19 PM 66.4 °F 54.9 °F 66% 29.87 in 10.0 mi Calm Calm - N/A   Clear
11:39 PM 66.4 °F 55.0 °F 67% 29.87 in 10.0 mi ESE 3.5 mph - N/A   Clear
11:59 PM 67.1 °F 54.7 °F 64% 29.87 in 10.0 mi SE 3.5 mph - N/A   Clear